Location: Владивосток
(43.1151°N, 131.8856°E)
Time: 01:48:20
(UTC+10:00)

FO-29 - Pass Details

Date: 25 April 2024
Orbit: 801 x 1320 km, 98.6° (Epoch: 19 May)

Event Time Altitude Azimuth Distance (km) Brightness Sun altitude
Rises 04:08:27 0° 7° (N) 4,189 13.6 -20.5°
Reaches altitude 10° 04:11:12 10° 1° (N) 3,266 12.8 -20.2°
Maximum altitude 04:18:15 42° 295° (WNW) 1,793 10.7 -19.2°
Enters shadow 04:22:02 26° 244° (WSW) 2,334 10.9 -18.7°
